FLOCK 3P-75

Last updated on Feb. 14, 2018, 4:20 p.m. UTC

1 41979U 17008AH  18045.17476602  .00002346  00000-0  99988-4 0  9999
2 41979  97.4681 110.8180 0009879  72.4975 287.7341 15.23916749 55361
UTC
Height (km)
Latitude
Longitude
Inclination
Orbital Period
UTC large
Height (km)
Speed (km/s)
/
Latitude / Longitude
Inclination (degrees)
Orbital Period (minutes)
Azimuth
Elevation
Range (km)
Doppler Factor
iOS Compass Heading
iOS Angle